Regional Weather Roundup
Issued by NWS

Home | Current Version | Previous Version | Graphics & Text | Print | Product List | Glossary On
Versions: 1 2 3 4 5 6 7 8 9 10 11 12 13 14 15 16 17 18 19 20 21 22 23 24 25 26 27 28 29 30 31 32 33 34 35 36 37 38 39 40 41 42 43 44 45 46 47 48 49 50
000
ASUS43 KDTX 240401
RWRMI
MICHIGAN HOURLY REGIONAL WEATHER ROUNDUP
NATIONAL WEATHER SERVICE DETROIT/PONTIAC MI
1100 PM EST FRI FEB 23 2018

NOTE: "FAIR" INDICATES FEW OR NO CLOUDS BELOW 12,000 FEET WITH NO
SIGNIFICANT WEATHER AND/OR OBSTRUCTION TO VISIBILITY.

MIZ047>049-052>055-059>063-066>070-074>076-081>083-240500-
SOUTHEAST LOWER MICHIGAN

CITY           SKY/WX    TMP DP  RH WIND       PRES   REMARKS
ADRIAN         CLOUDY    40  36  86 NW7       30.23R
ALMA           CLOUDY    37  33  87 W6G18     30.23R WCI  32
ANN ARBOR      CLOUDY    40  35  83 W13       30.21R WCI  32
BAD AXE        CLOUDY    36  32  86 W7        30.19R WCI  30
CARO           CLOUDY    37  34  89 W5        30.20S WCI  33
DETROIT CITY   CLOUDY    42  36  79 NW12G17   30.20S
DETROIT        CLOUDY    42  37  82 NW10      30.21R
FLINT          CLOUDY    37  33  85 W13       30.22R WCI  29
GROSSE ILE     CLOUDY    43  39  84 NW6       30.19F
HILLSDALE      CLOUDY    36  34  93 W8        30.21R WCI  29
HOWELL         CLOUDY    37  35  91 W7        30.21S WCI  32

CITY           SKY/WX    TMP DP  RH WIND       PRES   REMARKS
JACKSON        CLOUDY    38  35  89 W9        30.21S WCI  31
LAMBERTVILLE   CLOUDY    43  39  85 W5        30.22R
LANSING        CLOUDY    37  33  85 W9        30.23S WCI  30
LAPEER         CLOUDY    38  33  82 W9        30.20S WCI  32
MASON          CLOUDY    38  32  80 W10       30.23R WCI  30
MT. CLEMENS    CLOUDY    42  42  99 NW12G18   30.18R
PONTIAC        CLOUDY    38  36  92 W9        30.19R WCI  31
PORT HOPE        N/A     37  32  82 W5        30.16R WCI  33
PORT HURON     CLOUDY    41  34  75 W5        30.20R
TRI CITIES     CLOUDY    37  32  82 W8        30.21S WCI  31
MIDLAND        CLOUDY    37  32  80 W6        30.20R WCI  33
TROY           CLOUDY    42  36  80 W8        30.22S
SAGINAW HB     CLOUDY    36  32  87 W9        30.21S WCI  29
$$
MIZ043>046-050>051-056>058-064>065-071>073-077>080-240500-
SOUTHWEST LOWER MICHIGAN

CITY           SKY/WX    TMP DP  RH WIND       PRES   REMARKS
BATTLE CREEK   CLOUDY    36  32  85 NW7       30.24S WCI  30
BENTON HARBOR  CLOUDY    37  32  82 W5        30.26S WCI  33
BIG RAPIDS     CLOUDY    34  28  77 NW6       30.20R WCI  29
COLDWATER      CLOUDY    37  37 100 NW10      30.23S WCI  30
FREMONT        CLOUDY    34  27  75 NW7       30.23R WCI  28
HOLLAND        CLOUDY    37  31  78 NW7       30.25S WCI  32
GRAND RAPIDS   CLOUDY    37  31  78 W13G20    30.23S WCI  29
IONIA          CLOUDY    37  32  83 W13       30.22S WCI  28
KALAMAZOO      CLOUDY    37  32  82 NW7       30.25S WCI  32
LUDINGTON      CLOUDY    33  29  83 NW7       30.23S WCI  27
MARSHALL       CLOUDY    36  35  95 NW7       30.23S WCI  31
MOUNT PLEASANT CLOUDY    37  31  79 W7        30.21R WCI  32
MUSKEGON       CLOUDY    36  29  75 NW9       30.25R WCI  29
SOUTH HAVEN    CLOUDY    37  32  82 NW3       30.25S
$$
MIZ016>042-240500-
NORTHERN LOWER MICHIGAN

CITY           SKY/WX    TMP DP  RH WIND       PRES   REMARKS
ALPENA         CLOUDY    36  32  85 W7        30.15R WCI  30
BEAVER ISLAND  MOCLDY    32  27  83 NW7       30.19R WCI  25
BELLAIRE       CLOUDY    35  31  85 CALM      30.20S
CADILLAC       CLOUDY    32  29  89 W10       30.17S WCI  24
CHARLEVOIX     CLOUDY    33  32  96 NW6       30.22R WCI  27
FRANKFORT      CLOUDY    36  31  82 NW9       30.22R WCI  29
GAYLORD        CLOUDY    32  29  88 W13G18    30.14R WCI  22
GRAYLING       CLOUDY    34  29  84 W10G18    30.15R WCI  26
HARBOR SPRINGS CLOUDY    32  27  83 NW9       30.18R WCI  24
HOUGHTON LAKE  CLOUDY    34  28  79 W13       30.17R WCI  25
MANISTEE       CLOUDY    34  29  82 W9        30.23R WCI  27
OSCODA         CLOUDY    37  28  69 W12       30.16R WCI  30
PELLSTON       CLOUDY    32  26  78 NW15      30.17S WCI  22
ROGERS CITY    CLOUDY    32  29  88 NW8       30.17R WCI  25
TRAVERSE CITY  CLOUDY    36  29  75 W10       30.20R WCI  28
$$
MIZ007>008-015-240500-
EASTERN UPPER MICHIGAN

CITY           SKY/WX    TMP DP  RH WIND       PRES   REMARKS
KINROSS        CLOUDY    29  25  85 W16G22    30.14R WCI  17
MACKINAC ISLAN FAIR      29  26  86 NW9G16    30.16R WCI  21
NEWBERRY       CLOUDY    29  24  82 NW14      30.16R WCI  18
S. S. MARIE    CLOUDY    32  24  72 W12       30.12R WCI  23
MUNISING         N/A     32  23  69 NW8       30.18R WCI  25
$$
MIZ004>006-011>014-085-240500-
CENTRAL UPPER MICHIGAN

CITY           SKY/WX    TMP DP  RH WIND       PRES   REMARKS
MANISTIQUE     CLOUDY    30  29  95 NW3       30.19R
ESCANABA       CLOUDY    32  23  69 CALM      30.21R
MENOMINEE      CLOUDY    33  22  63 NW3       30.25R
SAWYER-GWINN   CLOUDY    28  21  75 W16       30.17R WCI  16
$$
MIZ001>003-009>011-084-240500-
WESTERN UPPER MICHIGAN

CITY           SKY/WX    TMP DP  RH WIND       PRES   REMARKS
IRON MOUNTAIN  CLOUDY    30  22  72 W12       30.18R WCI  20
HOUGHTON       CLOUDY    28  22  78 W16       30.14R WCI  16
COPPER HARBOR    N/A     30  24  78 VRB6      30.15S WCI  24
IRONWOOD       CLOUDY    28  22  78 W9        30.19S WCI  19
$$

ABBREVIATIONS USED IN REMARKS
   TC - TEMPERATURE IN CELSIUS
  WCI - WIND CHILL INDEX
   HX - HEAT INDEX
  VSB - VISIBILITY





USA.gov is the U.S. government's official web portal to all federal, state and local government web resources and services.